Time,TemperatureF,DewpointF,PressureIn,WindDirection,WindDirectionDegrees,WindSpeedMPH,WindSpeedGustMPH,Humidity,HourlyPrecipIn,Conditions,Clouds,dailyrainin,SoftwareType,DateUTC
2013-04-16 00:00:00,69.0,58.8,29.90,South,169,3.0,3.0,70,0.00,,,0.00,Wunderground v.1.15,2013-04-16 05:00:00,
2013-04-16 00:06:00,68.9,59.1,29.90,SSE,154,3.0,3.0,71,0.00,,,0.00,Wunderground v.1.15,2013-04-16 05:06:00,
2013-04-16 00:11:00,68.8,59.0,29.90,ESE,105,3.0,3.0,71,0.00,,,0.00,Wunderground v.1.15,2013-04-16 05:11:00,
2013-04-16 00:17:00,68.7,59.3,29.89,South,190,3.0,3.0,72,0.00,,,0.00,Wunderground v.1.15,2013-04-16 05:17:00,
2013-04-16 00:23:00,68.7,59.3,29.89,South,182,3.0,4.0,72,0.00,,,0.00,Wunderground v.1.15,2013-04-16 05:23:00,
2013-04-16 00:28:00,68.6,59.2,29.89,South,181,3.0,4.0,72,0.00,,,0.00,Wunderground v.1.15,2013-04-16 05:28:00,
2013-04-16 00:34:00,68.3,59.3,29.89,SSE,167,2.0,7.0,73,0.00,,,0.00,Wunderground v.1.15,2013-04-16 05:34:00,
2013-04-16 00:40:00,68.1,59.5,29.89,SSE,163,3.0,7.0,74,0.00,,,0.00,Wunderground v.1.15,2013-04-16 05:40:00,
2013-04-16 00:46:00,68.2,59.6,29.89,South,185,3.0,8.0,74,0.00,,,0.00,Wunderground v.1.15,2013-04-16 05:46:00,
2013-04-16 00:52:00,68.1,59.5,29.89,South,173,3.0,7.0,74,0.00,,,0.00,Wunderground v.1.15,2013-04-16 05:52:00,
2013-04-16 00:57:00,68.0,59.8,29.89,SSW,207,3.0,7.0,75,0.00,,,0.00,Wunderground v.1.15,2013-04-16 05:57:00,
2013-04-16 01:03:00,67.9,59.7,29.89,SSW,192,3.0,6.0,75,0.00,,,0.00,Wunderground v.1.15,2013-04-16 06:03:00,
2013-04-16 01:09:00,67.9,59.7,29.89,SSE,153,3.0,6.0,75,0.00,,,0.00,Wunderground v.1.15,2013-04-16 06:09:00,
2013-04-16 01:14:00,67.7,59.5,29.89,SSW,193,2.0,3.0,75,0.00,,,0.00,Wunderground v.1.15,2013-04-16 06:14:00,
2013-04-16 01:19:00,67.5,59.7,29.89,SSE,155,2.0,3.0,76,0.00,,,0.00,Wunderground v.1.15,2013-04-16 06:19:00,
2013-04-16 01:25:00,67.3,59.5,29.89,SSE,167,2.0,2.0,76,0.00,,,0.00,Wunderground v.1.15,2013-04-16 06:25:00,
2013-04-16 01:31:00,66.9,59.5,29.89,South,172,2.0,7.0,77,0.00,,,0.00,Wunderground v.1.15,2013-04-16 06:31:00,
2013-04-16 01:37:00,66.9,59.8,29.89,South,183,3.0,7.0,78,0.00,,,0.00,Wunderground v.1.15,2013-04-16 06:37:00,
2013-04-16 01:43:00,66.8,59.7,29.89,SE,146,2.0,7.0,78,0.00,,,0.00,Wunderground v.1.15,2013-04-16 06:43:00,
2013-04-16 01:48:00,66.6,59.5,29.89,South,183,2.0,7.0,78,0.00,,,0.00,Wunderground v.1.15,2013-04-16 06:48:00,
2013-04-16 01:54:00,66.5,59.8,29.89,SSE,168,2.0,7.0,79,0.00,,,0.00,Wunderground v.1.15,2013-04-16 06:54:00,
2013-04-16 02:00:00,66.5,59.8,29.89,South,180,2.0,2.0,79,0.00,,,0.00,Wunderground v.1.15,2013-04-16 07:00:00,
2013-04-16 02:06:00,66.5,59.8,29.89,SSE,153,2.0,3.0,79,0.00,,,0.00,Wunderground v.1.15,2013-04-16 07:06:00,
2013-04-16 02:12:00,66.5,60.1,29.89,SSE,163,2.0,2.0,80,0.00,,,0.00,Wunderground v.1.15,2013-04-16 07:12:00,
2013-04-16 02:17:00,66.4,60.0,29.89,SSW,202,2.0,2.0,80,0.00,,,0.00,Wunderground v.1.15,2013-04-16 07:17:00,
2013-04-16 02:23:00,66.2,59.8,29.89,South,188,2.0,4.0,80,0.00,,,0.00,Wunderground v.1.15,2013-04-16 07:23:00,
2013-04-16 02:29:00,66.2,59.8,29.89,South,182,2.0,4.0,80,0.00,,,0.00,Wunderground v.1.15,2013-04-16 07:29:00,
2013-04-16 02:34:00,66.2,59.8,29.90,SSW,212,3.0,7.0,80,0.00,,,0.00,Wunderground v.1.15,2013-04-16 07:34:00,
2013-04-16 02:40:00,66.1,59.7,29.90,South,176,2.0,2.0,80,0.00,,,0.00,Wunderground v.1.15,2013-04-16 07:40:00,
2013-04-16 02:46:00,66.1,60.1,29.90,South,181,2.0,7.0,81,0.00,,,0.00,Wunderground v.1.15,2013-04-16 07:46:00,
2013-04-16 02:52:00,65.9,59.9,29.91,SSE,160,2.0,7.0,81,0.00,,,0.00,Wunderground v.1.15,2013-04-16 07:52:00,
2013-04-16 02:57:00,65.8,59.8,29.91,SSW,198,2.0,7.0,81,0.00,,,0.00,Wunderground v.1.15,2013-04-16 07:57:00,
2013-04-16 03:03:00,65.8,60.2,29.91,SSE,163,2.0,2.0,82,0.00,,,0.00,Wunderground v.1.15,2013-04-16 08:03:00,
2013-04-16 03:09:00,65.5,59.9,29.91,SSE,167,2.0,3.0,82,0.00,,,0.00,Wunderground v.1.15,2013-04-16 08:09:00,
2013-04-16 03:15:00,65.3,60.0,29.91,SSE,155,1.0,2.0,83,0.00,,,0.00,Wunderground v.1.15,2013-04-16 08:15:00,
2013-04-16 03:20:00,65.2,59.9,29.91,SSE,155,1.0,3.0,83,0.00,,,0.00,Wunderground v.1.15,2013-04-16 08:20:00,
2013-04-16 03:25:00,65.1,59.8,29.91,SE,146,2.0,3.0,83,0.00,,,0.00,Wunderground v.1.15,2013-04-16 08:25:00,
2013-04-16 03:31:00,65.2,59.9,29.91,SSE,157,1.0,3.0,83,0.00,,,0.00,Wunderground v.1.15,2013-04-16 08:31:00,
2013-04-16 03:37:00,65.2,59.9,29.92,South,185,2.0,8.0,83,0.00,,,0.00,Wunderground v.1.15,2013-04-16 08:37:00,
2013-04-16 03:43:00,65.2,60.2,29.92,SSE,164,2.0,8.0,84,0.00,,,0.00,Wunderground v.1.15,2013-04-16 08:43:00,
2013-04-16 03:49:00,65.2,60.2,29.92,South,180,2.0,8.0,84,0.00,,,0.00,Wunderground v.1.15,2013-04-16 08:49:00,
2013-04-16 03:55:00,65.3,60.3,29.92,SSE,167,2.0,8.0,84,0.00,,,0.00,Wunderground v.1.15,2013-04-16 08:55:00,
2013-04-16 04:00:00,65.6,60.6,29.92,South,181,3.0,3.0,84,0.00,,,0.00,Wunderground v.1.15,2013-04-16 09:00:00,
2013-04-16 04:06:00,65.7,60.4,29.93,South,186,2.0,5.0,83,0.00,,,0.00,Wunderground v.1.15,2013-04-16 09:06:00,
2013-04-16 04:12:00,65.9,60.6,29.93,SSW,213,2.0,4.0,83,0.00,,,0.00,Wunderground v.1.15,2013-04-16 09:12:00,
2013-04-16 04:18:00,66.0,60.7,29.94,South,174,2.0,4.0,83,0.00,,,0.00,Wunderground v.1.15,2013-04-16 09:18:00,
2013-04-16 04:24:00,66.2,60.9,29.94,SSE,162,2.0,3.0,83,0.00,,,0.00,Wunderground v.1.15,2013-04-16 09:24:00,
2013-04-16 04:30:00,66.4,61.1,29.94,SSE,149,2.0,4.0,83,0.00,,,0.00,Wunderground v.1.15,2013-04-16 09:30:00,
2013-04-16 04:36:00,66.5,61.2,29.94,South,175,3.0,8.0,83,0.00,,,0.00,Wunderground v.1.15,2013-04-16 09:36:00,
2013-04-16 04:41:00,66.7,61.4,29.95,South,171,3.0,6.0,83,0.00,,,0.00,Wunderground v.1.15,2013-04-16 09:41:00,
2013-04-16 04:46:00,66.8,61.5,29.95,SSW,194,3.0,6.0,83,0.00,,,0.00,Wunderground v.1.15,2013-04-16 09:46:00,
2013-04-16 04:52:00,66.9,61.6,29.95,South,189,2.0,6.0,83,0.00,,,0.00,Wunderground v.1.15,2013-04-16 09:52:00,
2013-04-16 04:57:00,67.0,61.7,29.95,SSE,153,3.0,6.0,83,0.00,,,0.00,Wunderground v.1.15,2013-04-16 09:57:00,
2013-04-16 05:03:00,67.0,61.7,29.95,South,171,3.0,5.0,83,0.00,,,0.00,Wunderground v.1.15,2013-04-16 10:03:00,
2013-04-16 05:09:00,67.0,62.0,29.96,South,173,3.0,5.0,84,0.00,,,0.00,Wunderground v.1.15,2013-04-16 10:09:00,
2013-04-16 05:15:00,67.1,62.1,29.96,WSW,240,3.0,4.0,84,0.00,,,0.00,Wunderground v.1.15,2013-04-16 10:15:00,
2013-04-16 05:21:00,67.2,62.2,29.96,WSW,254,3.0,3.0,84,0.00,,,0.00,Wunderground v.1.15,2013-04-16 10:21:00,
2013-04-16 05:27:00,67.3,62.6,29.97,NW,306,3.0,5.0,85,0.00,,,0.00,Wunderground v.1.15,2013-04-16 10:27:00,
2013-04-16 05:32:00,67.3,62.6,29.97,SSW,212,2.0,9.0,85,0.00,,,0.00,Wunderground v.1.15,2013-04-16 10:32:00,
2013-04-16 05:37:00,67.4,62.7,29.98,SSW,209,2.0,9.0,85,0.00,,,0.00,Wunderground v.1.15,2013-04-16 10:37:00,
2013-04-16 05:42:00,67.4,62.7,29.98,SSE,167,2.0,9.0,85,0.00,,,0.00,Wunderground v.1.15,2013-04-16 10:42:00,
2013-04-16 05:48:00,67.4,62.7,29.98,SSW,195,2.0,9.0,85,0.00,,,0.00,Wunderground v.1.15,2013-04-16 10:48:00,
2013-04-16 05:54:00,67.4,63.1,29.99,WSW,257,2.0,9.0,86,0.00,,,0.00,Wunderground v.1.15,2013-04-16 10:54:00,
2013-04-16 06:00:00,67.4,63.1,29.99,South,187,2.0,3.0,86,0.00,,,0.00,Wunderground v.1.15,2013-04-16 11:00:00,
2013-04-16 06:06:00,67.4,63.1,29.99,SSE,155,2.0,4.0,86,0.00,,,0.00,Wunderground v.1.15,2013-04-16 11:06:00,
2013-04-16 06:11:00,67.4,63.1,29.99,South,186,2.0,2.0,86,0.00,,,0.00,Wunderground v.1.15,2013-04-16 11:11:00,
2013-04-16 06:17:00,67.4,63.1,30.00,South,183,2.0,3.0,86,0.00,,,0.00,Wunderground v.1.15,2013-04-16 11:17:00,
2013-04-16 06:22:00,67.4,63.1,30.00,SE,134,2.0,5.0,86,0.00,,,0.00,Wunderground v.1.15,2013-04-16 11:22:00,
2013-04-16 06:28:00,67.4,63.1,30.00,SSE,147,2.0,5.0,86,0.00,,,0.00,Wunderground v.1.15,2013-04-16 11:28:00,
2013-04-16 06:34:00,67.4,63.4,30.01,ESE,112,2.0,7.0,87,0.00,,,0.00,Wunderground v.1.15,2013-04-16 11:34:00,
2013-04-16 06:39:00,67.4,63.4,30.01,South,182,2.0,7.0,87,0.00,,,0.00,Wunderground v.1.15,2013-04-16 11:39:00,
2013-04-16 06:45:00,67.3,63.3,30.02,SSE,166,2.0,7.0,87,0.00,,,0.00,Wunderground v.1.15,2013-04-16 11:45:00,
2013-04-16 06:51:00,67.1,63.4,30.02,SSE,149,2.0,7.0,88,0.00,,,0.00,Wunderground v.1.15,2013-04-16 11:51:00,
2013-04-16 06:57:00,66.9,63.6,30.02,SSE,164,2.0,7.0,89,0.00,,,0.00,Wunderground v.1.15,2013-04-16 11:57:00,
2013-04-16 07:03:00,66.6,63.6,30.02,South,178,1.0,5.0,90,0.00,,,0.00,Wunderground v.1.15,2013-04-16 12:03:00,
2013-04-16 07:09:00,66.4,63.7,30.02,SSW,196,2.0,5.0,91,0.00,,,0.00,Wunderground v.1.15,2013-04-16 12:09:00,
2013-04-16 07:15:00,66.3,63.9,30.02,South,173,1.0,3.0,92,0.00,,,0.00,Wunderground v.1.15,2013-04-16 12:15:00,
2013-04-16 07:21:00,66.2,63.8,30.02,SSE,157,1.0,3.0,92,0.00,,,0.00,Wunderground v.1.15,2013-04-16 12:21:00,
2013-04-16 07:26:00,66.2,63.8,30.03,SSE,161,1.0,3.0,92,0.00,,,0.00,Wunderground v.1.15,2013-04-16 12:26:00,
2013-04-16 07:31:00,66.1,63.7,30.03,South,185,1.0,5.0,92,0.00,,,0.00,Wunderground v.1.15,2013-04-16 12:31:00,
2013-04-16 07:37:00,66.1,64.0,30.03,South,175,1.0,5.0,93,0.00,,,0.00,Wunderground v.1.15,2013-04-16 12:37:00,
2013-04-16 07:42:00,66.1,64.0,30.03,SSE,167,1.0,5.0,93,0.00,,,0.00,Wunderground v.1.15,2013-04-16 12:42:00,
2013-04-16 07:48:00,66.2,64.1,30.03,SE,144,2.0,5.0,93,0.00,,,0.00,Wunderground v.1.15,2013-04-16 12:48:00,
2013-04-16 07:54:00,66.3,64.2,30.03,South,175,2.0,5.0,93,0.00,,,0.00,Wunderground v.1.15,2013-04-16 12:54:00,
2013-04-16 08:00:00,66.5,64.4,30.03,SSE,147,3.0,6.0,93,0.00,,,0.00,Wunderground v.1.15,2013-04-16 13:00:00,
2013-04-16 08:06:00,66.5,64.4,30.03,South,181,3.0,6.0,93,0.00,,,0.00,Wunderground v.1.15,2013-04-16 13:06:00,
2013-04-16 08:12:00,66.5,64.4,30.03,SSE,152,3.0,4.0,93,0.00,,,0.00,Wunderground v.1.15,2013-04-16 13:12:00,
2013-04-16 08:18:00,66.5,64.4,30.03,SSE,153,3.0,6.0,93,0.00,,,0.00,Wunderground v.1.15,2013-04-16 13:18:00,
2013-04-16 08:23:00,66.5,64.1,30.03,South,180,4.0,5.0,92,0.00,,,0.00,Wunderground v.1.15,2013-04-16 13:23:00,
2013-04-16 08:29:00,66.6,64.2,30.03,SW,223,4.0,5.0,92,0.00,,,0.00,Wunderground v.1.15,2013-04-16 13:29:00,
2013-04-16 08:35:00,66.7,64.3,30.03,SSE,153,3.0,5.0,92,0.00,,,0.00,Wunderground v.1.15,2013-04-16 13:35:00,
2013-04-16 08:41:00,66.8,64.4,30.03,SSE,163,2.0,3.0,92,0.00,,,0.00,Wunderground v.1.15,2013-04-16 13:41:00,
2013-04-16 08:47:00,67.1,64.4,30.03,SSE,152,2.0,5.0,91,0.00,,,0.00,Wunderground v.1.15,2013-04-16 13:47:00,
2013-04-16 08:53:00,67.2,64.5,30.03,SSE,164,3.0,6.0,91,0.00,,,0.00,Wunderground v.1.15,2013-04-16 13:53:00,
2013-04-16 08:59:00,67.6,64.9,30.03,SSE,153,3.0,6.0,91,0.00,,,0.00,Wunderground v.1.15,2013-04-16 13:59:00,
2013-04-16 09:04:00,68.0,65.0,30.03,SSE,158,3.0,3.0,90,0.00,,,0.00,Wunderground v.1.15,2013-04-16 14:04:00,
2013-04-16 09:10:00,68.1,64.7,30.03,SSE,161,3.0,3.0,89,0.00,,,0.00,Wunderground v.1.15,2013-04-16 14:10:00,
2013-04-16 09:15:00,68.4,65.4,30.03,SSE,165,3.0,5.0,90,0.00,,,0.00,Wunderground v.1.15,2013-04-16 14:15:00,
2013-04-16 09:21:00,68.9,65.2,30.03,West,267,4.0,4.0,88,0.00,,,0.00,Wunderground v.1.15,2013-04-16 14:21:00,
2013-04-16 09:27:00,69.2,65.5,30.03,SE,145,3.0,5.0,88,0.00,,,0.00,Wunderground v.1.15,2013-04-16 14:27:00,
2013-04-16 09:33:00,69.5,65.8,30.03,SW,224,3.0,8.0,88,0.00,,,0.00,Wunderground v.1.15,2013-04-16 14:33:00,
2013-04-16 09:38:00,70.0,66.3,30.03,South,169,3.0,8.0,88,0.00,,,0.00,Wunderground v.1.15,2013-04-16 14:38:00,
2013-04-16 09:43:00,70.5,66.1,30.03,SSE,157,4.0,8.0,86,0.00,,,0.00,Wunderground v.1.15,2013-04-16 14:43:00,
2013-04-16 09:49:00,70.8,66.4,30.02,SSE,163,4.0,8.0,86,0.00,,,0.00,Wunderground v.1.15,2013-04-16 14:49:00,
2013-04-16 09:55:00,71.3,66.6,30.02,SSE,167,4.0,8.0,85,0.00,,,0.00,Wunderground v.1.15,2013-04-16 14:55:00,
2013-04-16 10:00:00,71.9,66.8,30.03,SSE,165,4.0,4.0,84,0.00,,,0.00,Wunderground v.1.15,2013-04-16 15:00:00,
2013-04-16 10:05:00,72.1,66.6,30.02,South,180,3.0,4.0,83,0.00,,,0.00,Wunderground v.1.15,2013-04-16 15:05:00,
2013-04-16 10:11:00,72.4,67.3,30.02,SSE,167,3.0,6.0,84,0.00,,,0.00,Wunderground v.1.15,2013-04-16 15:11:00,
2013-04-16 10:17:00,72.9,67.4,30.03,SSE,150,3.0,7.0,83,0.00,,,0.00,Wunderground v.1.15,2013-04-16 15:17:00,
2013-04-16 10:23:00,73.5,67.3,30.02,South,175,4.0,5.0,81,0.00,,,0.00,Wunderground v.1.15,2013-04-16 15:23:00,
2013-04-16 10:28:00,73.9,67.7,30.03,SSE,166,3.0,5.0,81,0.00,,,0.00,Wunderground v.1.15,2013-04-16 15:28:00,
2013-04-16 10:34:00,73.8,67.6,30.03,SSE,167,4.0,8.0,81,0.00,,,0.00,Wunderground v.1.15,2013-04-16 15:34:00,
2013-04-16 10:40:00,73.9,67.7,30.03,SW,228,4.0,4.0,81,0.00,,,0.00,Wunderground v.1.15,2013-04-16 15:40:00,
2013-04-16 10:45:00,74.4,68.2,30.03,SSE,150,3.0,8.0,81,0.00,,,0.00,Wunderground v.1.15,2013-04-16 15:45:00,
2013-04-16 10:51:00,75.1,68.5,30.03,South,178,3.0,8.0,80,0.00,,,0.00,Wunderground v.1.15,2013-04-16 15:51:00,
2013-04-16 10:57:00,75.4,68.1,30.03,SSE,149,3.0,8.0,78,0.00,,,0.00,Wunderground v.1.15,2013-04-16 15:57:00,
2013-04-16 11:03:00,75.2,68.2,30.03,SSE,151,4.0,4.0,79,0.00,,,0.00,Wunderground v.1.15,2013-04-16 16:03:00,
2013-04-16 11:09:00,75.2,67.9,30.03,South,182,3.0,4.0,78,0.00,,,0.00,Wunderground v.1.15,2013-04-16 16:09:00,
2013-04-16 11:14:00,75.1,68.1,30.03,South,172,3.0,6.0,79,0.00,,,0.00,Wunderground v.1.15,2013-04-16 16:14:00,
2013-04-16 11:20:00,75.2,68.2,30.03,SSE,155,3.0,5.0,79,0.00,,,0.00,Wunderground v.1.15,2013-04-16 16:20:00,
2013-04-16 11:26:00,75.2,68.2,30.03,SSW,201,4.0,5.0,79,0.00,,,0.00,Wunderground v.1.15,2013-04-16 16:26:00,
2013-04-16 11:32:00,75.4,68.4,30.03,WSW,246,3.0,11.0,79,0.00,,,0.00,Wunderground v.1.15,2013-04-16 16:32:00,
2013-04-16 11:38:00,75.4,68.4,30.03,SSE,161,3.0,11.0,79,0.00,,,0.00,Wunderground v.1.15,2013-04-16 16:38:00,
2013-04-16 11:44:00,75.6,68.6,30.03,South,188,3.0,11.0,79,0.00,,,0.00,Wunderground v.1.15,2013-04-16 16:44:00,
2013-04-16 11:50:00,75.4,68.4,30.03,SSW,203,3.0,11.0,79,0.00,,,0.00,Wunderground v.1.15,2013-04-16 16:50:00,
2013-04-16 11:55:00,75.1,68.1,30.03,South,174,4.0,11.0,79,0.00,,,0.00,Wunderground v.1.15,2013-04-16 16:55:00,
2013-04-16 12:00:00,74.9,67.9,30.03,SSW,200,3.0,3.0,79,0.00,,,0.00,Wunderground v.1.15,2013-04-16 17:00:00,
2013-04-16 12:06:00,75.0,68.4,30.03,SSE,160,2.0,5.0,80,0.00,,,0.00,Wunderground v.1.15,2013-04-16 17:06:00,
2013-04-16 12:12:00,75.4,68.4,30.03,South,172,3.0,3.0,79,0.00,,,0.00,Wunderground v.1.15,2013-04-16 17:12:00,
2013-04-16 12:17:00,75.6,68.6,30.03,ESE,115,3.0,4.0,79,0.00,,,0.00,Wunderground v.1.15,2013-04-16 17:17:00,
2013-04-16 12:23:00,75.4,68.1,30.03,South,190,3.0,4.0,78,0.00,,,0.00,Wunderground v.1.15,2013-04-16 17:23:00,
2013-04-16 12:29:00,75.3,68.3,30.02,South,181,3.0,4.0,79,0.00,,,0.00,Wunderground v.1.15,2013-04-16 17:29:00,
2013-04-16 12:35:00,76.0,69.0,30.02,South,178,3.0,9.0,79,0.00,,,0.00,Wunderground v.1.15,2013-04-16 17:35:00,
2013-04-16 12:41:00,76.7,68.6,30.02,SSE,161,3.0,9.0,76,0.00,,,0.00,Wunderground v.1.15,2013-04-16 17:41:00,
2013-04-16 12:47:00,76.4,68.7,30.02,SSE,156,5.0,9.0,77,0.00,,,0.00,Wunderground v.1.15,2013-04-16 17:47:00,
2013-04-16 12:52:00,76.7,68.9,30.02,SW,215,4.0,9.0,77,0.00,,,0.00,Wunderground v.1.15,2013-04-16 17:52:00,
2013-04-16 12:58:00,77.9,69.3,30.01,South,178,3.0,9.0,75,0.00,,,0.00,Wunderground v.1.15,2013-04-16 17:58:00,
2013-04-16 13:03:00,78.4,69.0,30.01,South,188,4.0,9.0,73,0.00,,,0.00,Wunderground v.1.15,2013-04-16 18:03:00,
2013-04-16 13:09:00,77.8,68.8,30.01,South,181,5.0,9.0,74,0.00,,,0.00,Wunderground v.1.15,2013-04-16 18:09:00,
2013-04-16 13:15:00,77.8,68.8,30.01,SSE,153,4.0,5.0,74,0.00,,,0.00,Wunderground v.1.15,2013-04-16 18:15:00,
2013-04-16 13:21:00,77.5,68.6,30.01,SSE,147,5.0,7.0,74,0.00,,,0.00,Wunderground v.1.15,2013-04-16 18:21:00,
2013-04-16 13:27:00,77.5,68.9,30.00,SE,132,5.0,8.0,75,0.00,,,0.00,Wunderground v.1.15,2013-04-16 18:27:00,
2013-04-16 13:32:00,77.8,69.2,30.01,ESE,117,4.0,11.0,75,0.00,,,0.00,Wunderground v.1.15,2013-04-16 18:32:00,
2013-04-16 13:38:00,78.2,69.2,30.01,South,178,4.0,11.0,74,0.00,,,0.00,Wunderground v.1.15,2013-04-16 18:38:00,
2013-04-16 13:44:00,78.1,68.7,30.00,SSE,165,4.0,11.0,73,0.00,,,0.00,Wunderground v.1.15,2013-04-16 18:44:00,
2013-04-16 13:50:00,78.1,68.7,30.00,South,169,5.0,5.0,73,0.00,,,0.00,Wunderground v.1.15,2013-04-16 18:50:00,
2013-04-16 13:56:00,78.5,69.1,30.00,South,172,5.0,11.0,73,0.00,,,0.00,Wunderground v.1.15,2013-04-16 18:56:00,
2013-04-16 14:02:00,78.8,69.4,30.00,SSE,156,4.0,5.0,73,0.00,,,0.00,Wunderground v.1.15,2013-04-16 19:02:00,
2013-04-16 14:08:00,78.3,68.5,30.00,SE,125,4.0,8.0,72,0.00,,,0.00,Wunderground v.1.15,2013-04-16 19:08:00,
2013-04-16 14:14:00,77.6,68.7,29.99,SSE,153,5.0,6.0,74,0.00,,,0.00,Wunderground v.1.15,2013-04-16 19:14:00,
2013-04-16 14:20:00,77.7,68.4,30.00,South,171,5.0,7.0,73,0.00,,,0.00,Wunderground v.1.15,2013-04-16 19:20:00,
2013-04-16 14:26:00,78.1,68.7,30.00,South,178,4.0,8.0,73,0.00,,,0.00,Wunderground v.1.15,2013-04-16 19:26:00,
2013-04-16 14:32:00,78.1,68.3,29.99,South,180,4.0,11.0,72,0.00,,,0.00,Wunderground v.1.15,2013-04-16 19:32:00,
2013-04-16 14:37:00,77.7,68.4,29.99,SW,217,4.0,11.0,73,0.00,,,0.00,Wunderground v.1.15,2013-04-16 19:37:00,
2013-04-16 14:43:00,78.2,68.8,29.99,SSE,147,4.0,11.0,73,0.00,,,0.00,Wunderground v.1.15,2013-04-16 19:43:00,
2013-04-16 14:49:00,79.3,68.7,29.98,SE,145,3.0,11.0,70,0.00,,,0.00,Wunderground v.1.15,2013-04-16 19:49:00,
2013-04-16 14:55:00,79.5,68.9,29.98,South,169,5.0,11.0,70,0.00,,,0.00,Wunderground v.1.15,2013-04-16 19:55:00,
2013-04-16 15:00:00,80.0,69.3,29.98,SSW,192,5.0,5.0,70,0.00,,,0.00,Wunderground v.1.15,2013-04-16 20:00:00,
2013-04-16 15:06:00,80.6,69.5,29.98,SSE,159,4.0,6.0,69,0.00,,,0.00,Wunderground v.1.15,2013-04-16 20:06:00,
2013-04-16 15:12:00,80.8,69.2,29.98,South,180,5.0,6.0,68,0.00,,,0.00,Wunderground v.1.15,2013-04-16 20:12:00,
2013-04-16 15:18:00,80.8,68.8,29.98,SSE,167,5.0,6.0,67,0.00,,,0.00,Wunderground v.1.15,2013-04-16 20:18:00,
2013-04-16 15:24:00,80.7,68.7,29.97,SSE,161,4.0,9.0,67,0.00,,,0.00,Wunderground v.1.15,2013-04-16 20:24:00,
2013-04-16 15:29:00,79.9,68.0,29.98,SSE,157,5.0,9.0,67,0.00,,,0.00,Wunderground v.1.15,2013-04-16 20:29:00,
2013-04-16 15:35:00,79.0,68.0,29.98,South,186,4.0,13.0,69,0.00,,,0.00,Wunderground v.1.15,2013-04-16 20:35:00,
2013-04-16 15:41:00,78.5,68.3,29.98,South,184,3.0,13.0,71,0.00,,,0.00,Wunderground v.1.15,2013-04-16 20:41:00,
2013-04-16 15:47:00,78.2,68.0,29.98,SSE,156,3.0,13.0,71,0.00,,,0.00,Wunderground v.1.15,2013-04-16 20:47:00,
2013-04-16 15:52:00,78.1,68.3,29.98,SSE,154,2.0,13.0,72,0.00,,,0.00,Wunderground v.1.15,2013-04-16 20:52:00,
2013-04-16 15:58:00,77.9,68.1,29.98,SSE,167,2.0,13.0,72,0.00,,,0.00,Wunderground v.1.15,2013-04-16 20:58:00,
2013-04-16 16:03:00,77.7,68.0,29.98,SSE,155,3.0,3.0,72,0.00,,,0.00,Wunderground v.1.15,2013-04-16 21:03:00,
2013-04-16 16:09:00,77.5,68.2,29.98,South,169,3.0,4.0,73,0.00,,,0.00,Wunderground v.1.15,2013-04-16 21:09:00,
2013-04-16 16:14:00,77.4,68.1,29.99,SE,145,2.0,3.0,73,0.00,,,0.00,Wunderground v.1.15,2013-04-16 21:14:00,
2013-04-16 16:20:00,77.3,68.4,29.98,SSE,161,1.0,1.0,74,0.00,,,0.00,Wunderground v.1.15,2013-04-16 21:20:00,
2013-04-16 16:26:00,77.3,68.8,29.98,SSE,153,2.0,3.0,75,0.00,,,0.00,Wunderground v.1.15,2013-04-16 21:26:00,
2013-04-16 16:32:00,77.8,68.8,29.98,SSE,156,2.0,15.0,74,0.00,,,0.00,Wunderground v.1.15,2013-04-16 21:32:00,
2013-04-16 16:38:00,78.2,68.8,29.98,SSE,157,2.0,15.0,73,0.00,,,0.00,Wunderground v.1.15,2013-04-16 21:38:00,
2013-04-16 16:44:00,78.7,68.9,29.97,SSE,148,4.0,15.0,72,0.00,,,0.00,Wunderground v.1.15,2013-04-16 21:44:00,
2013-04-16 16:50:00,79.6,69.4,29.97,SE,138,4.0,15.0,71,0.00,,,0.00,Wunderground v.1.15,2013-04-16 21:50:00,
2013-04-16 16:55:00,79.5,69.3,29.98,South,185,4.0,15.0,71,0.00,,,0.00,Wunderground v.1.15,2013-04-16 21:55:00,
2013-04-16 17:00:00,79.5,69.3,29.97,South,173,5.0,5.0,71,0.00,,,0.00,Wunderground v.1.15,2013-04-16 22:00:00,
2013-04-16 17:06:00,79.3,68.7,29.97,South,169,4.0,6.0,70,0.00,,,0.00,Wunderground v.1.15,2013-04-16 22:06:00,
2013-04-16 17:11:00,79.5,69.3,29.97,SSE,157,4.0,5.0,71,0.00,,,0.00,Wunderground v.1.15,2013-04-16 22:11:00,
2013-04-16 17:16:00,79.7,69.5,29.97,SSE,165,3.0,5.0,71,0.00,,,0.00,Wunderground v.1.15,2013-04-16 22:16:00,
2013-04-16 17:22:00,79.9,68.8,29.97,South,187,3.0,3.0,69,0.00,,,0.00,Wunderground v.1.15,2013-04-16 22:22:00,
2013-04-16 17:28:00,79.6,69.0,29.97,SSE,153,2.0,4.0,70,0.00,,,0.00,Wunderground v.1.15,2013-04-16 22:28:00,
2013-04-16 17:34:00,79.6,68.5,29.97,South,173,3.0,8.0,69,0.00,,,0.00,Wunderground v.1.15,2013-04-16 22:34:00,
2013-04-16 17:40:00,79.8,68.7,29.97,South,178,3.0,3.0,69,0.00,,,0.00,Wunderground v.1.15,2013-04-16 22:40:00,
2013-04-16 17:46:00,80.0,68.5,29.98,SSE,158,2.0,8.0,68,0.00,,,0.00,Wunderground v.1.15,2013-04-16 22:46:00,
2013-04-16 17:52:00,80.2,69.1,29.98,SE,131,2.0,8.0,69,0.00,,,0.00,Wunderground v.1.15,2013-04-16 22:52:00,
2013-04-16 17:58:00,79.6,68.5,29.98,South,175,2.0,8.0,69,0.00,,,0.00,Wunderground v.1.15,2013-04-16 22:58:00,
2013-04-16 18:04:00,78.9,68.3,29.98,South,169,3.0,4.0,70,0.00,,,0.00,Wunderground v.1.15,2013-04-16 23:04:00,
2013-04-16 18:10:00,78.4,68.2,29.98,SSE,148,2.0,2.0,71,0.00,,,0.00,Wunderground v.1.15,2013-04-16 23:10:00,
2013-04-16 18:16:00,78.2,68.0,29.98,SSE,157,1.0,3.0,71,0.00,,,0.00,Wunderground v.1.15,2013-04-16 23:16:00,
2013-04-16 18:22:00,78.0,68.2,29.99,South,181,2.0,2.0,72,0.00,,,0.00,Wunderground v.1.15,2013-04-16 23:22:00,
2013-04-16 18:27:00,78.1,68.3,29.98,SSE,150,2.0,3.0,72,0.00,,,0.00,Wunderground v.1.15,2013-04-16 23:27:00,
2013-04-16 18:32:00,78.2,68.4,29.98,SSE,153,2.0,8.0,72,0.00,,,0.00,Wunderground v.1.15,2013-04-16 23:32:00,
2013-04-16 18:38:00,78.1,68.7,29.98,SSE,150,2.0,8.0,73,0.00,,,0.00,Wunderground v.1.15,2013-04-16 23:38:00,
2013-04-16 18:44:00,77.9,68.5,29.99,SSE,159,2.0,8.0,73,0.00,,,0.00,Wunderground v.1.15,2013-04-16 23:44:00,
2013-04-16 18:50:00,77.8,68.8,29.99,SSE,151,1.0,8.0,74,0.00,,,0.00,Wunderground v.1.15,2013-04-16 23:50:00,
2013-04-16 18:56:00,77.6,68.7,29.99,SE,142,2.0,8.0,74,0.00,,,0.00,Wunderground v.1.15,2013-04-16 23:56:00,
2013-04-16 19:02:00,77.2,68.3,29.99,SE,143,2.0,4.0,74,0.00,,,0.00,Wunderground v.1.15,2013-04-17 00:02:00,
2013-04-16 19:08:00,76.7,68.2,29.99,SE,142,2.0,4.0,75,0.00,,,0.00,Wunderground v.1.15,2013-04-17 00:08:00,
2013-04-16 19:14:00,76.2,68.1,29.99,SE,146,2.0,2.0,76,0.00,,,0.00,Wunderground v.1.15,2013-04-17 00:14:00,
2013-04-16 19:20:00,75.6,67.9,29.99,SSE,156,1.0,3.0,77,0.00,,,0.00,Wunderground v.1.15,2013-04-17 00:20:00,
2013-04-16 19:26:00,75.2,67.9,29.99,SSE,152,2.0,4.0,78,0.00,,,0.00,Wunderground v.1.15,2013-04-17 00:26:00,
2013-04-16 19:32:00,74.9,67.6,29.99,SE,139,2.0,5.0,78,0.00,,,0.00,Wunderground v.1.15,2013-04-17 00:32:00,
2013-04-16 19:38:00,74.7,67.8,29.99,SE,128,2.0,5.0,79,0.00,,,0.00,Wunderground v.1.15,2013-04-17 00:38:00,
2013-04-16 19:43:00,74.6,67.7,29.99,SE,128,1.0,5.0,79,0.00,,,0.00,Wunderground v.1.15,2013-04-17 00:43:00,
2013-04-16 19:49:00,74.5,67.9,30.00,SE,128,1.0,5.0,80,0.00,,,0.00,Wunderground v.1.15,2013-04-17 00:49:00,
2013-04-16 19:54:00,74.2,67.6,30.00,SE,145,1.0,5.0,80,0.00,,,0.00,Wunderground v.1.15,2013-04-17 00:54:00,
2013-04-16 20:00:00,73.8,67.6,30.00,SE,145,1.0,1.0,81,0.00,,,0.00,Wunderground v.1.15,2013-04-17 01:00:00,
2013-04-16 20:06:00,73.5,67.7,30.00,SE,145,1.0,1.0,82,0.00,,,0.00,Wunderground v.1.15,2013-04-17 01:06:00,
2013-04-16 20:12:00,73.4,67.6,30.00,SE,145,1.0,1.0,82,0.00,,,0.00,Wunderground v.1.15,2013-04-17 01:12:00,
2013-04-16 20:18:00,73.3,67.5,30.00,SE,145,1.0,1.0,82,0.00,,,0.00,Wunderground v.1.15,2013-04-17 01:18:00,
2013-04-16 20:24:00,72.8,67.3,30.01,SE,145,1.0,2.0,83,0.00,,,0.00,Wunderground v.1.15,2013-04-17 01:24:00,
2013-04-16 20:30:00,72.5,67.4,30.01,SE,145,1.0,2.0,84,0.00,,,0.00,Wunderground v.1.15,2013-04-17 01:30:00,
2013-04-16 20:36:00,72.4,67.3,30.01,SE,144,1.0,5.0,84,0.00,,,0.00,Wunderground v.1.15,2013-04-17 01:36:00,
2013-04-16 20:42:00,72.8,67.3,30.01,SE,140,1.0,5.0,83,0.00,,,0.00,Wunderground v.1.15,2013-04-17 01:42:00,
2013-04-16 20:48:00,73.1,67.6,30.01,SE,138,1.0,5.0,83,0.00,,,0.00,Wunderground v.1.15,2013-04-17 01:48:00,
2013-04-16 20:53:00,73.2,67.4,30.01,SSE,167,1.0,5.0,82,0.00,,,0.00,Wunderground v.1.15,2013-04-17 01:53:00,
2013-04-16 20:59:00,73.3,67.5,30.01,SSE,157,1.0,5.0,82,0.00,,,0.00,Wunderground v.1.15,2013-04-17 01:59:00,
2013-04-16 21:05:00,73.0,67.2,30.01,SSE,148,2.0,2.0,82,0.00,,,0.00,Wunderground v.1.15,2013-04-17 02:05:00,
2013-04-16 21:11:00,73.0,67.2,30.01,South,170,2.0,2.0,82,0.00,,,0.00,Wunderground v.1.15,2013-04-17 02:11:00,
2013-04-16 21:16:00,73.0,67.2,30.02,South,169,2.0,3.0,82,0.00,,,0.00,Wunderground v.1.15,2013-04-17 02:16:00,
2013-04-16 21:22:00,73.0,67.2,30.01,SE,145,2.0,2.0,82,0.00,,,0.00,Wunderground v.1.15,2013-04-17 02:22:00,
2013-04-16 21:28:00,73.1,67.3,30.02,SSE,153,2.0,3.0,82,0.00,,,0.00,Wunderground v.1.15,2013-04-17 02:28:00,
2013-04-16 21:34:00,72.9,67.1,30.02,SE,145,2.0,3.0,82,0.00,,,0.00,Wunderground v.1.15,2013-04-17 02:34:00,
2013-04-16 21:40:00,73.0,67.2,30.02,SSE,150,2.0,2.0,82,0.00,,,0.00,Wunderground v.1.15,2013-04-17 02:40:00,
2013-04-16 21:46:00,73.0,67.2,30.02,SSE,149,2.0,3.0,82,0.00,,,0.00,Wunderground v.1.15,2013-04-17 02:46:00,
2013-04-16 21:52:00,73.0,67.2,30.02,SSE,150,1.0,2.0,82,0.00,,,0.00,Wunderground v.1.15,2013-04-17 02:52:00,
2013-04-16 21:57:00,73.0,67.2,30.02,SSE,150,1.0,2.0,82,0.00,,,0.00,Wunderground v.1.15,2013-04-17 02:57:00,
2013-04-16 22:02:00,72.8,67.0,30.02,SSE,150,1.0,1.0,82,0.00,,,0.00,Wunderground v.1.15,2013-04-17 03:02:00,
2013-04-16 22:08:00,72.6,66.8,30.02,SSE,150,1.0,1.0,82,0.00,,,0.00,Wunderground v.1.15,2013-04-17 03:08:00,
2013-04-16 22:14:00,72.3,66.8,30.02,SSE,150,0.0,1.0,83,0.00,,,0.00,Wunderground v.1.15,2013-04-17 03:14:00,
2013-04-16 22:20:00,71.9,66.8,30.02,SSE,150,1.0,1.0,84,0.00,,,0.00,Wunderground v.1.15,2013-04-17 03:20:00,
2013-04-16 22:26:00,71.6,66.5,30.02,SSE,150,1.0,2.0,84,0.00,,,0.00,Wunderground v.1.15,2013-04-17 03:26:00,
2013-04-16 22:32:00,71.4,66.7,30.02,SSE,150,0.0,4.0,85,0.00,,,0.00,Wunderground v.1.15,2013-04-17 03:32:00,
2013-04-16 22:38:00,71.1,66.4,30.02,SSE,150,0.0,4.0,85,0.00,,,0.00,Wunderground v.1.15,2013-04-17 03:38:00,
2013-04-16 22:44:00,70.9,66.5,30.02,SSE,150,0.0,4.0,86,0.00,,,0.00,Wunderground v.1.15,2013-04-17 03:44:00,
2013-04-16 22:49:00,70.6,66.2,30.02,SSE,150,1.0,4.0,86,0.00,,,0.00,Wunderground v.1.15,2013-04-17 03:49:00,
2013-04-16 22:55:00,70.3,66.2,30.02,SSE,150,0.0,4.0,87,0.00,,,0.00,Wunderground v.1.15,2013-04-17 03:55:00,
2013-04-16 23:00:00,70.0,66.0,30.02,SSE,150,0.0,1.0,87,0.00,,,0.00,Wunderground v.1.15,2013-04-17 04:00:00,
2013-04-16 23:01:00,70.0,66.0,30.02,SSE,150,1.0,1.0,87,0.00,,,0.00,Wunderground v.1.15,2013-04-17 04:01:00,
2013-04-16 23:02:00,70.0,66.0,30.02,SSE,150,1.0,1.0,87,0.00,,,0.00,Wunderground v.1.15,2013-04-17 04:02:00,
2013-04-16 23:04:00,69.9,65.9,30.02,SSE,150,1.0,1.0,87,0.00,,,0.00,Wunderground v.1.15,2013-04-17 04:04:00,
2013-04-16 23:07:00,69.9,65.9,30.02,SSE,150,1.0,1.0,87,0.00,,,0.00,Wunderground v.1.15,2013-04-17 04:07:00,
2013-04-16 23:13:00,69.9,65.9,30.02,SSE,151,1.0,2.0,87,0.00,,,0.00,Wunderground v.1.15,2013-04-17 04:13:00,
2013-04-16 23:19:00,69.9,65.9,30.02,SSE,150,1.0,2.0,87,0.00,,,0.00,Wunderground v.1.15,2013-04-17 04:19:00,
2013-04-16 23:25:00,69.9,65.9,30.02,SSE,150,1.0,1.0,87,0.00,,,0.00,Wunderground v.1.15,2013-04-17 04:25:00,
2013-04-16 23:31:00,69.9,65.9,30.02,SSE,150,1.0,2.0,87,0.00,,,0.00,Wunderground v.1.15,2013-04-17 04:31:00,
2013-04-16 23:37:00,69.9,66.2,30.02,SSE,153,0.0,2.0,88,0.00,,,0.00,Wunderground v.1.15,2013-04-17 04:37:00,
2013-04-16 23:43:00,69.8,65.8,30.02,SSE,153,0.0,2.0,87,0.00,,,0.00,Wunderground v.1.15,2013-04-17 04:43:00,
2013-04-16 23:49:00,69.6,65.9,30.03,SSE,153,1.0,2.0,88,0.00,,,0.00,Wunderground v.1.15,2013-04-17 04:49:00,
2013-04-16 23:54:00,69.6,65.9,30.03,SSE,153,1.0,2.0,88,0.00,,,0.00,Wunderground v.1.15,2013-04-17 04:54:00,